HF3P-11 Weather Reports


time (UTC)temp
C
wind
direction
speed
KPH
gust
KPH
rain 1hr
cm
rain 24hr
cm
rain mn
cm
humidity
%
barometer
mb
20260507021506 7 21 8.0 17.7 0.00 0.03 0.00 97 1001.8
20260507021007 7 11 6.4 17.7 0.00 0.03 0.00 97 1001.8
20260507020506 7 5 6.4 16.1 0.00 0.03 0.00 97 1001.8
20260507015958 7 14 8.0 16.1 0.00 0.03 0.00 97 1001.7
20260507015458 7 8 8.0 16.1 0.00 0.03 0.00 97 1001.6
20260507014957 7 17 8.0 17.7 0.00 0.03 0.00 97 1001.4
20260507014508 7 24 8.0 20.9 0.00 0.03 0.00 96 1001.4
20260507014006 7 12 9.7 20.9 0.00 0.03 0.00 96 1001.2
20260507013506 7 15 8.0 17.7 0.00 0.03 0.00 96 1001.1
20260507013007 7 23 9.7 22.5 0.00 0.03 0.00 96 1001.0
20260507012458 7 16 9.7 22.5 0.00 0.03 0.00 95 1000.9
20260507012008 7 7 9.7 20.9 0.00 0.03 0.00 95 1000.9
20260507011506 7 3 9.7 17.7 0.00 0.03 0.00 95 1000.8
20260507010958 8 349 9.7 17.7 0.00 0.03 0.00 95 1000.9
20260507010506 8 352 9.7 17.7 0.00 0.03 0.00 94 1000.8
20260507005959 8 12 8.0 14.5 0.00 0.03 0.00 94 1000.9
20260507005458 8 20 9.7 19.3 0.00 0.03 0.00 94 1000.9
20260507004959 8 23 8.0 19.3 0.00 0.03 0.00 94 1000.8
20260507004507 8 19 6.4 14.5 0.00 0.03 0.00 94 1000.8
20260507003959 8 12 6.4 14.5 0.00 0.03 0.00 94 1000.9
20260507003458 8 11 6.4 14.5 0.00 0.03 0.00 94 1000.9
20260507003009 8 18 6.4 14.5 0.00 0.03 0.00 95 1000.8
20260507002458 8 14 6.4 14.5 0.00 0.03 0.00 95 1001.0
20260507002007 8 6 6.4 16.1 0.00 0.03 0.00 95 1000.8
20260507001507 8 6 6.4 16.1 0.00 0.03 0.00 95 1000.9
20260507000959 8 4 6.4 12.9 0.00 0.03 0.00 95 1000.8
20260507000459 8 10 6.4 12.9 0.00 0.03 0.00 95 1000.7
20260506235958 8 21 6.4 12.9 0.00 0.03 0.00 96 1000.7
20260506235507 8 11 6.4 12.9 0.00 0.03 0.00 95 1000.6
20260506234959 8 7 6.4 12.9 0.00 0.03 0.00 95 1000.8
20260506234459 8 17 4.8 12.9 0.00 0.03 0.00 95 1000.8
20260506234007 8 19 6.4 12.9 0.00 0.03 0.00 96 1000.5
20260506233458 8 21 6.4 16.1 0.00 0.03 0.00 96 1000.7
20260506233006 8 19 8.0 16.1 0.00 0.03 0.00 95 1000.7
20260506232507 8 9 6.4 16.1 0.00 0.03 0.00 95 1000.7
20260506232009 9 7 6.4 16.1 0.00 0.03 0.00 95 1000.6
20260506231506 9 15 6.4 16.1 0.00 0.03 0.00 95 1000.6
20260506230958 9 32 6.4 16.1 0.00 0.03 0.00 95 1000.7
20260506230459 9 25 6.4 16.1 0.00 0.03 0.00 94 1000.7
20260506230007 9 12 8.0 16.1 0.00 0.03 0.00 94 1000.6
20260506225509 9 17 9.7 14.5 0.00 0.03 0.00 93 1000.6
20260506225007 10 16 8.0 14.5 0.00 0.03 0.00 92 1000.8
20260506224507 10 12 6.4 14.5 0.00 0.03 0.00 92 1000.9
20260506224009 10 16 6.4 12.9 0.00 0.03 0.00 92 1000.7
20260506223458 10 20 6.4 12.9 0.00 0.03 0.00 91 1000.7
20260506223006 10 14 4.8 16.1 0.00 0.03 0.00 90 1000.8
20260506222458 10 18 3.2 16.1 0.00 0.03 0.00 89 1000.7
20260506222007 10 28 1.6 4.8 0.00 0.03 0.00 89 1000.7
20260506221458 10 19 1.6 4.8 0.00 0.03 0.00 89 1000.5
20260506220958 10 19 0.0 4.8 0.00 0.03 0.00 89 1000.5
20260506220458 10 8 1.6 6.4 0.00 0.03 0.00 89 1000.6
20260506220007 10 1 3.2 6.4 0.00 0.03 0.00 89 1000.6
20260506215509 10 351 1.6 6.4 0.00 0.03 0.03 89 1000.5
20260506214959 10 307 1.6 6.4 0.00 0.03 0.03 89 1000.7
20260506214506 10 325 3.2 6.4 0.00 0.03 0.03 89 1000.7
20260506213958 10 278 3.2 6.4 0.00 0.03 0.03 89 1000.6
20260506213509 10 192 3.2 6.4 0.00 0.03 0.03 89 1000.7
20260506212958 10 9 3.2 6.4 0.00 0.03 0.03 90 1000.6
20260506212506 10 358 4.8 12.9 0.00 0.03 0.03 90 1000.2
20260506212007 10 348 8.0 14.5 0.00 0.03 0.03 90 999.8
20260506211459 10 351 9.7 17.7 0.00 0.03 0.03 90 999.9
20260506211006 10 1 11.3 17.7 0.00 0.03 0.03 89 999.8
20260506210458 10 353 9.7 24.1 0.00 0.03 0.03 90 999.9
20260506210007 10 345 9.7 24.1 0.00 0.03 0.03 90 999.9
20260506205459 10 350 9.7 24.1 0.00 0.03 0.03 90 1000.1
20260506204959 10 4 8.0 17.7 0.00 0.03 0.03 90 1000.1
20260506204458 10 4 6.4 17.7 0.00 0.03 0.03 89 1000.2
20260506204007 10 354 6.4 16.1 0.00 0.03 0.03 89 1000.0
20260506203506 10 339 8.0 16.1 0.00 0.03 0.03 89 1000.2
20260506203007 10 332 8.0 17.7 0.00 0.03 0.03 89 1000.1
20260506202507 10 341 9.7 19.3 0.00 0.03 0.03 89 1000.2
20260506202009 11 354 9.7 19.3 0.00 0.03 0.03 89 999.9
20260506201459 11 351 8.0 17.7 0.00 0.03 0.03 89 999.9
20260506201007 11 339 8.0 16.1 0.00 0.03 0.03 89 1000.0
20260506200507 11 344 6.4 14.5 0.00 0.03 0.03 89 999.9
20260506195959 11 344 6.4 14.5 0.00 0.03 0.03 89 1000.1
20260506195506 11 338 6.4 16.1 0.00 0.03 0.03 88 1000.0
20260506195006 11 347 6.4 16.1 0.00 0.03 0.03 89 1000.0
20260506194506 11 346 8.0 20.9 0.00 0.03 0.03 89 999.9
20260506194008 11 347 9.7 20.9 0.00 0.03 0.03 88 999.8
20260506193506 11 350 11.3 20.9 0.00 0.03 0.03 88 999.8
20260506193007 11 345 9.7 20.9 0.00 0.03 0.03 89 999.6
20260506192507 11 336 6.4 17.7 0.00 0.03 0.03 88 999.8
20260506191958 11 323 6.4 16.1 0.00 0.03 0.03 88 999.7
20260506191508 11 315 6.4 14.5 0.00 0.03 0.03 87 999.6
20260506191009 11 314 6.4 14.5 0.00 0.03 0.03 87 999.8
20260506190459 12 324 6.4 12.9 0.00 0.03 0.03 86 999.7
20260506190007 12 325 4.8 12.9 0.00 0.03 0.03 86 999.4
20260506185459 12 315 4.8 11.3 0.00 0.03 0.03 85 999.5
20260506184959 12 305 4.8 11.3 0.00 0.03 0.03 85 999.4
20260506184459 12 308 4.8 11.3 0.00 0.03 0.03 85 999.4
20260506183959 12 316 4.8 12.9 0.00 0.03 0.03 84 999.4
20260506183506 12 306 4.8 12.9 0.00 0.03 0.03 84 999.3
20260506182958 12 305 6.4 12.9 0.00 0.03 0.03 84 999.1
20260506182507 12 322 6.4 14.5 0.00 0.03 0.03 83 999.0
20260506181959 12 326 4.8 14.5 0.00 0.03 0.03 83 999.1
20260506181500 13 319 3.2 11.3 0.00 0.03 0.03 83 999.0
20260506181008 13 318 4.8 11.3 0.00 0.03 0.03 82 999.0
20260506180459 13 318 6.4 16.1 0.00 0.03 0.03 82 998.8
20260506180007 13 325 8.0 16.1 0.00 0.03 0.03 81 998.9
20260506175500 13 320 8.0 17.7 0.00 0.03 0.03 81 998.8
20260506174959 13 323 6.4 17.7 0.00 0.03 0.03 81 998.9
20260506174507 13 339 6.4 17.7 0.00 0.03 0.03 81 998.7
20260506173959 14 335 8.0 17.7 0.00 0.03 0.03 80 998.6
20260506173507 14 333 8.0 17.7 0.00 0.03 0.03 79 998.6
20260506173007 15 329 8.0 16.1 0.00 0.03 0.03 79 998.7
20260506172509 15 321 6.4 16.1 0.00 0.03 0.03 79 998.7
20260506171459 15 304 8.0 17.7 0.00 0.03 0.03 78 998.7
20260506170959 15 307 6.4 17.7 0.00 0.03 0.03 77 998.6
20260506170507 15 314 6.4 14.5 0.00 0.03 0.03 77 998.5
20260506165958 15 303 6.4 17.7 0.00 0.03 0.03 77 998.6
20260506165508 16 303 9.7 19.3 0.00 0.03 0.03 76 998.6
20260506164959 16 306 11.3 19.3 0.00 0.03 0.03 76 998.5
20260506164507 16 278 9.7 19.3 0.00 0.03 0.03 75 998.4
20260506163959 16 285 9.7 20.9 0.00 0.03 0.03 75 998.5
20260506163509 16 304 9.7 22.5 0.00 0.03 0.03 75 998.4
20260506162959 16 315 11.3 24.1 0.00 0.03 0.03 75 998.4
20260506162508 17 316 11.3 24.1 0.00 0.03 0.03 74 998.4
20260506161959 17 306 9.7 24.1 0.00 0.03 0.03 74 998.6
20260506161507 17 311 8.0 19.3 0.00 0.03 0.03 74 998.5
20260506160959 19 313 8.0 17.7 0.00 0.03 0.03 73 998.3
20260506160507 18 312 8.0 19.3 0.00 0.03 0.03 74 998.3
20260506160009 18 304 8.0 19.3 0.00 0.03 0.03 74 998.2
20260506155459 18 303 8.0 19.3 0.00 0.03 0.03 74 998.2
20260506154959 18 310 8.0 19.3 0.00 0.03 0.03 73 998.3
20260506154459 18 317 6.4 17.7 0.00 0.03 0.03 74 998.2
20260506153959 18 307 6.4 19.3 0.00 0.03 0.03 74 998.0
20260506153509 18 302 6.4 19.3 0.00 0.03 0.03 75 998.0
20260506152959 18 313 8.0 17.7 0.00 0.03 0.03 74 998.3
20260506152508 18 310 8.0 17.7 0.00 0.03 0.03 74 998.0
20260506152009 18 301 8.0 20.9 0.00 0.03 0.03 74 998.0
20260506151510 18 293 9.7 20.9 0.00 0.03 0.03 73 997.9
20260506150959 18 280 9.7 17.7 0.00 0.03 0.03 73 997.9
20260506150507 18 292 8.0 17.7 0.00 0.03 0.03 72 998.0
20260506145959 18 317 9.7 19.3 0.00 0.03 0.03 72 998.1
20260506145508 18 324 11.3 19.3 0.00 0.03 0.03 71 998.0
20260506145000 19 313 9.7 19.3 0.00 0.03 0.03 71 998.1
20260506144507 19 306 8.0 22.5 0.00 0.03 0.03 70 997.9
20260506143959 19 310 8.0 22.5 0.00 0.03 0.03 69 997.9
20260506143507 19 311 6.4 17.7 0.00 0.03 0.03 70 997.8
20260506143010 19 312 6.4 14.5 0.00 0.03 0.03 69 997.8
20260506142459 19 313 6.4 14.5 0.00 0.03 0.03 68 997.9
20260506142007 20 299 6.4 17.7 0.00 0.03 0.03 68 997.9
20260506141459 20 271 6.4 17.7 0.00 0.03 0.03 68 997.8
20260506141009 20 243 6.4 12.9 0.00 0.03 0.03 69 997.7
20260506140459 19 254 8.0 20.9 0.00 0.03 0.03 70 997.9
20260506140007 19 260 8.0 20.9 0.00 0.03 0.03 70 997.6
20260506135500 18 258 8.0 16.1 0.00 0.03 0.03 70 997.9
20260506134959 18 273 8.0 16.1 0.00 0.03 0.03 70 997.6
20260506134506 18 266 6.4 16.1 0.00 0.03 0.03 71 997.8
20260506134007 18 256 6.4 14.5 0.00 0.03 0.03 71 997.8
20260506133459 18 257 6.4 14.5 0.00 0.03 0.03 71 997.6
20260506133007 18 270 8.0 14.5 0.00 0.03 0.03 70 997.5
20260506132508 18 258 6.4 12.9 0.00 0.03 0.03 69 997.7
20260506131959 18 247 8.0 16.1 0.00 0.03 0.03 70 997.5
20260506131508 18 258 8.0 20.9 0.00 0.03 0.03 69 997.4
20260506130959 18 240 8.0 20.9 0.00 0.03 0.03 69 997.4
20260506130507 18 239 8.0 17.7 0.00 0.03 0.03 70 997.4
20260506125959 18 248 8.0 17.7 0.00 0.03 0.03 70 997.6
20260506125459 18 243 8.0 16.1 0.00 0.03 0.03 70 997.6
20260506125007 18 256 11.3 25.7 0.00 0.03 0.03 70 997.4
20260506124500 18 260 11.3 25.7 0.00 0.03 0.03 69 997.6
20260506124007 18 272 9.7 25.7 0.00 0.03 0.03 71 997.5
20260506123459 18 284 9.7 25.7 0.00 0.03 0.03 71 997.6
20260506123007 18 251 8.0 17.7 0.00 0.03 0.03 72 997.5
20260506122459 17 229 6.4 17.7 0.00 0.03 0.03 72 997.6
20260506122007 17 225 8.0 20.9 0.00 0.03 0.03 73 997.5
20260506121459 17 224 9.7 20.9 0.00 0.03 0.03 72 997.7
20260506121009 17 225 9.7 17.7 0.00 0.03 0.03 72 997.8
20260506120459 17 219 8.0 19.3 0.00 0.03 0.03 72 997.8
20260506120000 17 205 8.0 19.3 0.00 0.03 0.03 72 997.6
20260506115507 17 201 8.0 17.7 0.00 0.03 0.03 72 997.5
20260506115009 17 207 8.0 17.7 0.00 0.03 0.03 72 997.6
20260506114459 18 197 9.7 17.7 0.00 0.03 0.03 72 997.6
20260506114007 17 189 9.7 17.7 0.00 0.03 0.03 73 997.6
20260506113459 17 192 8.0 16.1 0.00 0.03 0.03 74 997.5
20260506113009 17 189 6.4 16.1 0.00 0.03 0.03 74 997.6
20260506112459 17 194 6.4 12.9 0.00 0.03 0.03 74 997.6
20260506112009 17 191 4.8 12.9 0.00 0.03 0.03 74 997.6
20260506111459 17 206 4.8 12.9 0.00 0.03 0.03 74 997.5
20260506111009 17 225 8.0 12.9 0.00 0.03 0.03 73 997.8
20260506110459 17 227 8.0 16.1 0.00 0.03 0.03 72 997.7
20260506110007 17 219 8.0 19.3 0.00 0.03 0.03 72 997.7
20260506105459 17 211 8.0 19.3 0.00 0.03 0.03 73 997.6
20260506105007 17 237 9.7 24.1 0.00 0.03 0.03 73 997.7
20260506104459 17 242 9.7 24.1 0.00 0.03 0.03 74 997.8
20260506104007 17 222 9.7 22.5 0.00 0.03 0.03 75 997.7
20260506103459 17 216 9.7 22.5 0.00 0.03 0.03 76 997.8
20260506103009 16 199 11.3 20.9 0.00 0.03 0.03 75 997.8
20260506102500 16 198 11.3 20.9 0.00 0.03 0.03 75 997.9
20260506102008 16 202 9.7 19.3 0.00 0.03 0.03 76 997.8
20260506101459 16 217 8.0 19.3 0.00 0.03 0.03 78 997.7
20260506101009 16 227 9.7 17.7 0.00 0.03 0.03 77 997.6
20260506100500 16 229 8.0 17.7 0.00 0.03 0.03 77 997.7
20260506100008 16 242 6.4 17.7 0.00 0.03 0.03 77 997.8
20260506095459 16 240 8.0 17.7 0.00 0.03 0.03 77 997.7
20260506095009 16 228 9.7 17.7 0.00 0.03 0.03 76 997.8
20260506094500 16 224 6.4 17.7 0.00 0.03 0.03 77 997.8
20260506094007 16 217 8.0 17.7 0.00 0.03 0.03 77 997.7
20260506093500 15 223 9.7 17.7 0.00 0.03 0.03 76 997.9
20260506093008 16 237 9.7 19.3 0.00 0.03 0.03 77 997.7
20260506092459 16 229 9.7 19.3 0.00 0.03 0.03 77 997.6
20260506092009 16 214 9.7 19.3 0.00 0.03 0.03 78 997.7
20260506091459 15 220 9.7 19.3 0.00 0.03 0.03 79 997.7
20260506091010 15 229 9.7 19.3 0.00 0.03 0.03 79 997.6
20260506090500 15 232 11.3 20.9 0.00 0.03 0.03 79 997.8
20260506090007 15 245 11.3 22.5 0.00 0.03 0.03 79 997.6
20260506085459 15 246 11.3 22.5 0.00 0.03 0.03 80 997.4
20260506085008 15 227 11.3 22.5 0.00 0.03 0.03 80 997.4
20260506084500 15 213 8.0 20.9 0.03 0.03 0.03 82 997.4
20260506084008 15 219 8.0 20.9 0.03 0.03 0.03 83 997.4
20260506083508 15 235 6.4 17.7 0.03 0.03 0.03 83 997.5
20260506083000 14 244 6.4 11.3 0.03 0.03 0.03 83 997.2
20260506082508 14 227 8.0 19.3 0.03 0.03 0.03 83 997.4
20260506082000 14 231 9.7 19.3 0.03 0.03 0.03 83 997.2
20260506081508 14 237 8.0 17.7 0.03 0.03 0.03 83 997.4
20260506080959 14 251 8.0 17.7 0.03 0.03 0.03 85 997.5
20260506080509 13 256 8.0 12.9 0.03 0.03 0.03 87 997.4
20260506073500 12 208 4.8 9.7 0.00 0.00 0.00 88 997.3
20260506073007 12 206 4.8 9.7 0.00 0.00 0.00 88 997.4
20260506072459 12 217 4.8 12.9 0.00 0.00 0.00 88 997.6
20260506072010 13 213 4.8 12.9 0.00 0.00 0.00 87 997.5
20260506071500 12 185 3.2 8.0 0.00 0.00 0.00 87 997.5
20260506071007 12 149 3.2 6.4 0.00 0.00 0.00 86 997.1
20260506070500 12 132 1.6 6.4 0.00 0.00 0.00 83 997.2
20260506062507 12 141 4.8 9.7 0.00 0.00 0.00 86 997.1
20260506062000 12 134 4.8 11.3 0.00 0.00 0.00 86 997.1
20260506061507 12 120 6.4 12.9 0.00 0.00 0.00 86 997.0
20260506061000 12 111 8.0 12.9 0.00 0.00 0.00 87 997.1
20260506060509 12 99 8.0 14.5 0.00 0.00 0.00 86 997.0
20260506051000 11 11 8.0 14.5 0.00 0.00 0.00 92 997.0
20260506050508 11 25 8.0 17.7 0.00 0.00 0.00 94 996.9
20260506045000 10 68 11.3 24.1 0.00 0.00 0.00 96 997.1
20260506044507 10 73 8.0 24.1 0.00 0.00 0.00 96 997.1
20260506044000 10 70 8.0 17.7 0.00 0.00 0.00 97 997.2
20260506043500 10 61 8.0 17.7 0.00 0.00 0.00 97 997.2
20260506043008 10 53 8.0 17.7 0.00 0.00 0.00 97 997.3
20260506042508 10 56 9.7 17.7 0.00 0.00 0.00 100 997.3
20260506042007 10 55 8.0 17.7 0.00 0.00 0.00 100 997.2
20260506041507 10 47 8.0 17.7 0.00 0.00 0.00 100 997.2
20260506041000 10 45 8.0 17.7 0.00 0.00 0.00 100 997.1
20260506040509 10 43 9.7 17.7 0.00 0.03 0.00 100 997.1
20260506040000 10 38 9.7 19.3 0.00 0.03 0.00 100 997.2
20260506035510 10 40 8.0 19.3 0.00 0.03 0.00 100 997.4
20260506035007 10 48 8.0 14.5 0.00 0.03 0.00 100 997.4
20260506034508 10 44 8.0 17.7 0.00 0.03 0.00 100 997.8
20260506034008 10 39 8.0 17.7 0.00 0.05 0.00 100 997.7
20260506033510 10 40 8.0 17.7 0.00 0.05 0.00 100 997.8
20260506033007 10 45 9.7 17.7 0.00 0.05 0.00 100 997.9
20260506032509 10 47 9.7 19.3 0.00 0.05 0.00 100 997.9
20260506032008 10 44 8.0 19.3 0.00 0.05 0.00 100 997.9
20260506031509 10 41 8.0 17.7 0.00 0.05 0.00 100 997.9
20260506031010 10 43 8.0 17.7 0.00 0.05 0.00 100 998.0
20260506030507 10 39 9.7 17.7 0.00 0.05 0.00 100 997.9
20260506030008 10 37 9.7 22.5 0.00 0.05 0.00 100 998.0
20260506025508 10 44 9.7 22.5 0.00 0.05 0.00 100 998.1
20260506025010 10 49 8.0 14.5 0.00 0.05 0.00 97 998.2
20260506024500 10 46 8.0 17.7 0.00 0.05 0.00 100 998.4
20260506024008 10 43 8.0 17.7 0.00 0.05 0.00 97 998.5
20260506023500 10 43 8.0 17.7 0.00 0.05 0.00 100 998.1
20260506023000 9 41 9.7 17.7 0.00 0.05 0.00 100 998.1
20260506022500 10 37 9.7 17.7 0.00 0.05 0.00 100 998.3
20260506022010 10 33 9.7 20.9 0.00 0.05 0.00 100 998.3